Weather Roundup
Issued by NWS Chicago, IL

Home | Current Version | Previous Version | Text Only | Print | Product List | Glossary On
Versions: 1 2 3 4 5 6 7 8 9 10 11 12 13 14 15 16 17 18 19 20 21 22 23 24 25 26 27 28 29 30 31 32 33 34 35 36 37 38 39 40 41 42 43 44 45 46 47 48 49 50
983
NZUS59 KLOT 091712
HRRLOT

CHICAGO AREA WEATHER ROUNDUP
NATIONAL WEATHER SERVICE CHICAGO/ROMEOVILLE IL
1100 AM CST FRI DEC 09 2016

NOTE: "FAIR" INDICATES FEW OR NO CLOUDS BELOW 12,000 FEET WITH NO
SIGNIFICANT WEATHER AND/OR OBSTRUCTIONS TO VISIBILITY.

* THESE STATIONS ARE NOT UNDER NWS QUALITY CONTROL. THEY ALSO MAY NOT
  REPORT WEATHER SUCH AS PRECIPITATION OR FOG.

ILZ005-006-012>014-019>023-091800-
NORTHEAST ILLINOIS

CITY           SKY/WX    TMP DP  RH WIND       PRES   REMARKS
OHARE          FLURRIES  24  16  71 W10       30.52F WCI  14
MIDWAY         FLURRIES  26  14  60 W10       30.53F WCI  16
AURORA         PTSUNNY   24  17  74 W12       30.54F WCI  13
LANSING*       CLOUDY    26  16  65 W8        30.53F WCI  17
JOLIET*        CLOUDY    26  18  70 W9        30.55F WCI  17
WAUKEGAN       CLOUDY    25  12  58 NW8       30.50F WCI  16
DUPAGE AIRPORT FLURRIES  24  14  65 W12       30.52F WCI  13
WHEELING       CLOUDY    24  13  62 W7        30.53F WCI  16
KANKAKEE*      CLOUDY    25  17  71 W10       30.56F WCI  15
MORRIS*        CLOUDY    24  18  75 W8        30.55F WCI  15
LEWIS AIRPORT* CLOUDY    24  18  75 NW12      30.54F WCI  13
NORTHERLY ISL    N/A     26  15  63 W7          N/A  WCI  19
$$

WIZ051-052-058>065-066-070>072-091800-
SOUTHEAST WISCONSIN

CITY           SKY/WX    TMP DP  RH WIND       PRES   REMARKS
MILWAUKEE      MOSUNNY   26  11  52 W14       30.49F WCI  14
KENOSHA*       PTSUNNY   26  13  57 W15       30.50F WCI  14
RACINE*        PTSUNNY   25  11  55 NW9       30.51F WCI  15
BURLINGTON     PTSUNNY   28  18  66 W12       30.51S WCI  18
WAUKESHA       CLOUDY    21  12  68 NW13G18   30.50F WCI   9
WEST BEND      MOSUNNY   23  14  68 W16       30.47F WCI  10
$$

INZ001>003-010>013-019-020-091800-
NORTHWEST INDIANA

CITY           SKY/WX    TMP DP  RH WIND       PRES   REMARKS
GARY*          CLOUDY    27  16  63 W13       30.54F WCI  16
MICHIGAN CITY* NOT AVBL
RENSSELAER*    NOT AVBL
VALPARAISO     CLOUDY    28  16  60 MISG      30.52S
$$

LMZ740>746-091800-
SOUTHERN LAKE MICHIGAN

STATION/POSITION TIME  SKY/WX   TEMP WIND        PRES    VSBY
                                AIR  DIR/SP/G
                 (UTC)          (F)  (DEG/KT/KT) (MB)    (MI)
HARRISON CRIB    1640            25  290/ 16/ 19   N/A
BURNHAM HARBOR   1700            26  300/ 11/ 13   N/A
CALUMET HARBOR   1648            25  250/  5/ 11 1033.0F
BURNS HARBOR     1640            27  290/ 14/ 19 1033.9R
MICHIGAN CITY    NOT AVBL
$$

ABBREVIATIONS USED IN REMARKS
   TC - TEMPERATURE IN CELSIUS
  WCI - WIND CHILL INDEX
   HX - HEAT INDEX
  VSB - VISIBILITY
$$




USA.gov is the U.S. government's official web portal to all federal, state and local government web resources and services.